Location: Zagreb
(45.8000°N, 16.0000°E)
Time: 13:40:16
(UTC+02:00)

ISS - Visible Passes

Search period start: 28 September 2021 00:00
Search period end: 08 October 2021 00:00
Orbit: 417 x 422 km, 51.6° (Epoch: 28 September)

Date Brightness Start Highest point End Pass type
(mag) Time Alt. Az. Time Alt. Az. Time Alt. Az.
28 Sep -2.4 19:30:28 10° WNW 19:33:30 30° N 19:36:11 12° ENE visible
28 Sep -1.8 21:07:20 10° WNW 21:09:09 29° NW 21:09:09 29° NW visible
29 Sep -3.3 20:19:56 10° WNW 20:23:14 49° NNE 20:23:32 47° NE visible
30 Sep -2.9 19:32:28 10° NW 19:35:40 38° NNE 19:37:53 17° ENE visible
30 Sep -1.4 21:09:16 10° WNW 21:10:50 24° WNW 21:10:50 24° WNW visible
01 Oct -3.9 20:21:40 10° WNW 20:25:03 83° SSW 20:25:10 80° SSE visible
02 Oct -3.7 19:34:03 10° WNW 19:37:25 67° NNE 19:39:30 21° ESE visible
02 Oct -1.0 21:11:18 10° W 21:12:27 16° WSW 21:12:27 16° WSW visible
03 Oct -2.5 20:23:18 10° WNW 20:26:23 34° SW 20:26:48 32° SSW visible
04 Oct -3.2 19:35:24 10° WNW 19:38:42 54° SW 19:41:10 16° SE visible
05 Oct -1.1 20:25:24 10° W 20:27:13 14° SW 20:28:33 12° SSW visible
06 Oct -1.5 19:36:49 10° W 19:39:30 22° SW 19:42:10 10° S visible
07 Oct -2.2 18:48:34 10° WNW 18:51:40 35° SW 18:54:44 10° SSE visible
